Stations météo

réclame
Mon MeteoGroup
Cairnwell, Grande-Bretagne (3072): Température de l'air & dewpoint: 13.09.2019 12:00:00 - 19.09.2019 12:00:00 (BST)Cairnwell, Grande-Bretagne (3072): Vitesse du vent & gusts: 13.09.2019 12:00:00 - 19.09.2019 12:00:00 (BST)Cairnwell, Grande-Bretagne (3072): Direction du vent: 13.09.2019 12:00:00 - 19.09.2019 12:00:00 (BST)
Date & Time tt [°C] td [°C] ff [km/h] ff [knt] fx [km/h] fx [knt] dd
19.09.2019 12:00:00 - - - - - - -
19.09.2019 11:00:00 12,1 7,7 5 3 - - WSW
19.09.2019 10:00:00 10,9 7,4 21 11 - - W
19.09.2019 09:00:00 9,6 6,0 18 10 - - WNW
19.09.2019 08:00:00 9,3 5,9 8 4 - - NNW
19.09.2019 07:00:00 9,4 8,1 11 6 - - WNW
19.09.2019 06:00:00 9,3 8,0 18 10 - - W
19.09.2019 05:00:00 8,7 8,4 9 5 - - SW
19.09.2019 04:00:00 9,2 8,6 13 7 - - WSW
19.09.2019 03:00:00 9,2 9,1 8 4 - - W
19.09.2019 02:00:00 8,7 8,7 8 4 - - N
19.09.2019 01:00:00 8,2 8,2 21 11 - - WNW
19.09.2019 00:00:00 8,4 8,4 8 4 - - NW
18.09.2019 23:00:00 8,4 8,4 11 6 - - WNW
18.09.2019 22:00:00 8,5 8,5 11 6 - - NW
18.09.2019 21:00:00 8,8 8,8 34 18 52 28 NW
18.09.2019 20:00:00 9,1 9,1 44 24 63 34 WNW
18.09.2019 19:00:00 9,3 9,3 48 26 55 30 WNW
18.09.2019 18:00:00 9,7 9,2 39 21 50 27 WNW
18.09.2019 17:00:00 9,8 9,3 18 10 - - W
18.09.2019 16:00:00 9,1 8,8 21 11 54 29 WNW
18.09.2019 15:00:00 8,8 8,2 37 20 57 31 WNW
18.09.2019 14:00:00 8,0 7,9 24 13 - - W
18.09.2019 13:00:00 7,2 7,1 22 12 - - WNW
18.09.2019 12:00:00 6,7 6,7 26 14 - - W
18.09.2019 11:00:00 5,9 5,9 24 13 - - W
18.09.2019 10:00:00 4,0 4,0 13 7 - - SW
18.09.2019 09:00:00 3,2 3,2 15 8 - - S
18.09.2019 08:00:00 3,1 3,1 13 7 - - S
18.09.2019 07:00:00 3,0 3,0 13 7 - - SSW
18.09.2019 06:00:00 3,1 3,1 15 8 - - SSW
18.09.2019 05:00:00 3,1 3,1 18 10 - - WSW
18.09.2019 04:00:00 2,8 2,8 18 10 - - WSW
18.09.2019 03:00:00 2,9 2,1 16 9 - - W
18.09.2019 02:00:00 3,2 1,6 24 13 - - W
18.09.2019 01:00:00 3,4 1,3 21 11 - - WNW
18.09.2019 00:00:00 3,5 0,9 13 7 - - NW
17.09.2019 23:00:00 3,7 0,4 15 8 - - NW
17.09.2019 22:00:00 3,6 -0,2 5 3 - - NW
17.09.2019 21:00:00 3,8 -0,6 15 8 - - NW
17.09.2019 20:00:00 3,7 -0,9 11 6 - - N
17.09.2019 19:00:00 4,2 0,2 15 8 - - NNW
17.09.2019 18:00:00 4,9 0,2 24 13 50 27 NNW
17.09.2019 17:00:00 5,1 -0,1 44 24 52 28 NW
17.09.2019 16:00:00 5,0 -0,1 34 18 59 32 NNW
17.09.2019 15:00:00 4,8 -0,6 39 21 50 27 NW
17.09.2019 14:00:00 5,0 -1,2 35 19 52 28 NW
17.09.2019 13:00:00 5,9 0,1 35 19 59 32 NW
17.09.2019 12:00:00 5,0 0,2 37 20 55 30 NW
17.09.2019 11:00:00 3,7 -0,8 29 16 78 42 NNW
17.09.2019 10:00:00 2,6 0,1 68 37 80 43 NW
17.09.2019 09:00:00 2,3 -0,4 44 24 59 32 NW
17.09.2019 08:00:00 2,0 -0,9 34 18 50 27 NW
17.09.2019 07:00:00 1,7 -0,3 29 16 72 39 NW
17.09.2019 06:00:00 2,0 -0,3 54 29 78 42 NW
17.09.2019 05:00:00 2,4 0,3 54 29 76 41 NW
17.09.2019 04:00:00 2,2 1,2 57 31 78 42 WNW
17.09.2019 03:00:00 2,1 0,3 63 34 80 43 WNW
17.09.2019 02:00:00 2,4 0,5 61 33 80 43 WNW
17.09.2019 01:00:00 2,9 2,2 63 34 81 44 WNW
17.09.2019 00:00:00 3,4 3,1 57 31 74 40 WNW
16.09.2019 23:00:00 3,5 2,5 48 26 74 40 WNW
16.09.2019 22:00:00 3,6 2,5 41 22 87 47 WNW
16.09.2019 21:00:00 4,2 3,8 63 34 80 43 WNW
16.09.2019 20:00:00 4,4 4,4 44 24 74 40 WNW
16.09.2019 19:00:00 5,2 3,8 35 19 63 34 W
16.09.2019 18:00:00 5,5 3,1 26 14 85 46 W
16.09.2019 17:00:00 6,0 3,3 39 21 76 41 W
16.09.2019 16:00:00 6,1 2,7 34 18 78 42 W
16.09.2019 15:00:00 6,3 2,9 34 18 81 44 WNW
16.09.2019 14:00:00 5,5 4,1 39 21 78 42 W
16.09.2019 13:00:00 5,6 2,4 39 21 74 40 W
16.09.2019 12:00:00 4,7 3,1 42 23 59 32 W
16.09.2019 11:00:00 4,9 2,1 41 22 61 33 W
16.09.2019 10:00:00 4,4 1,2 28 15 68 37 W
16.09.2019 09:00:00 3,7 0,8 46 25 72 39 WNW
16.09.2019 08:00:00 3,2 0,8 46 25 68 37 W
16.09.2019 07:00:00 3,4 1,9 50 27 68 37 WNW
16.09.2019 06:00:00 3,2 2,9 42 23 63 34 WNW
16.09.2019 05:00:00 3,3 2,2 37 20 55 30 WNW
16.09.2019 04:00:00 3,0 1,8 24 13 - - WNW
16.09.2019 03:00:00 2,9 1,8 21 11 46 25 W
16.09.2019 02:00:00 3,2 2,5 35 19 - - WNW
16.09.2019 01:00:00 2,3 1,9 26 14 46 25 WNW
16.09.2019 00:00:00 2,8 1,4 26 14 55 30 WNW
15.09.2019 23:00:00 2,8 1,6 50 27 55 30 WNW
15.09.2019 22:00:00 3,0 1,8 42 23 59 32 WNW
15.09.2019 21:00:00 3,5 0,8 46 25 54 29 WNW
15.09.2019 20:00:00 4,2 0,2 21 11 67 36 WNW
15.09.2019 19:00:00 5,2 -0,7 41 22 72 39 W
15.09.2019 18:00:00 5,7 0,2 52 28 65 35 W
15.09.2019 17:00:00 5,9 1,3 37 20 70 38 WNW
15.09.2019 16:00:00 6,0 0,0 46 25 74 40 WNW
15.09.2019 15:00:00 6,7 0,8 31 17 85 46 WNW
15.09.2019 14:00:00 5,5 0,8 70 38 85 46 WNW
15.09.2019 13:00:00 4,8 0,9 54 29 76 41 WNW
15.09.2019 12:00:00 4,6 1,8 37 20 70 38 W
15.09.2019 11:00:00 4,4 1,9 37 20 76 41 W
15.09.2019 10:00:00 4,1 1,4 44 24 83 45 WNW
15.09.2019 09:00:00 3,4 0,8 55 30 96 52 W
15.09.2019 08:00:00 3,3 1,1 54 29 106 57 W
15.09.2019 07:00:00 3,3 1,3 54 29 109 59 WNW
15.09.2019 06:00:00 3,5 0,9 67 36 111 60 W
15.09.2019 05:00:00 4,0 1,9 72 39 106 57 W
15.09.2019 04:00:00 4,2 2,7 61 33 94 51 W
15.09.2019 03:00:00 4,6 3,4 57 31 119 64 W
15.09.2019 02:00:00 5,5 4,1 91 49 119 64 W
15.09.2019 01:00:00 5,5 5,1 78 42 135 73 W
15.09.2019 00:00:00 5,7 5,6 70 38 137 74 W
14.09.2019 23:00:00 6,6 6,6 104 56 133 72 W
14.09.2019 22:00:00 7,6 7,6 78 42 104 56 W
14.09.2019 21:00:00 9,8 9,8 76 41 119 64 W
14.09.2019 20:00:00 9,7 9,7 72 39 124 67 W
14.09.2019 19:00:00 9,5 9,5 87 47 119 64 WSW
14.09.2019 18:00:00 9,0 9,0 87 47 124 67 WSW
14.09.2019 17:00:00 8,7 8,7 89 48 117 63 WSW
14.09.2019 16:00:00 7,9 7,9 65 35 98 53 SW
14.09.2019 15:00:00 7,5 7,5 72 39 106 57 SW
14.09.2019 14:00:00 7,1 7,1 83 45 102 55 SW
14.09.2019 13:00:00 6,6 6,6 68 37 100 54 SW
14.09.2019 12:00:00 6,2 6,2 65 35 100 54 SW
14.09.2019 11:00:00 6,1 6,1 83 45 115 62 SW
14.09.2019 10:00:00 5,7 5,7 83 45 115 62 SW
14.09.2019 09:00:00 5,7 5,5 93 50 115 62 SW
14.09.2019 08:00:00 5,1 5,1 57 31 94 51 SSW
14.09.2019 07:00:00 5,1 5,1 70 38 100 54 SSW
14.09.2019 06:00:00 4,8 4,8 57 31 78 42 SSW
14.09.2019 05:00:00 4,5 4,5 57 31 67 36 SW
14.09.2019 04:00:00 4,1 4,1 42 23 54 29 SW
14.09.2019 03:00:00 4,8 3,9 41 22 68 37 WSW
14.09.2019 02:00:00 4,8 4,2 35 19 68 37 SW
14.09.2019 01:00:00 5,9 3,6 54 29 72 39 W
14.09.2019 00:00:00 5,4 4,1 16 9 - - NW
13.09.2019 23:00:00 5,3 4,3 11 6 57 31 NNW
13.09.2019 22:00:00 5,5 4,0 44 24 57 31 W
13.09.2019 21:00:00 5,3 4,2 48 26 67 36 W
13.09.2019 20:00:00 5,4 4,5 39 21 61 33 WSW
13.09.2019 19:00:00 5,8 3,0 44 24 72 39 WSW
13.09.2019 18:00:00 6,5 2,8 31 17 63 34 WSW
13.09.2019 17:00:00 7,1 1,9 42 23 63 34 W
13.09.2019 16:00:00 7,6 2,0 44 24 74 40 WSW
13.09.2019 15:00:00 7,3 2,1 42 23 65 35 W
13.09.2019 14:00:00 7,7 0,9 44 24 65 35 W
13.09.2019 13:00:00 7,4 2,1 41 22 70 38 W
13.09.2019 12:00:00 6,0 2,7 41 22 67 36 W

tt = Température de l'air
td = dewpoint
ff = Vitesse du vent
fx = gusts
dd = Direction du vent

stations d'obs. à proximité